Temp
51 52 52 52 52 51 52 51 49 50 50 51 51 52 53 54 54 52 55 56 59 61 70 70 72 72 68 66 67 72 74 74
52 51 52 51 51 49 50 50 48 49 47 47 47 46 49 51 53 54 54 54 54 54 65 69 69 70 69 66 65 69 71 74
49 50 50 49 49 48 49 49 49 47 47 47 49 49 49 50 52 52 54 54 53 54 56 63 68 68 67 65 65 65 70 72
47 48 49 49 48 47 48 49 50 49 47 47 46 48 49 48 48 50 52 53 55 55 55 58 63 67 66 65 64 66 66 69
47 48 48 48 49 49 49 49 50 50 49 45 42 41 40 45 46 49 51 52 52 54 55 57 61 60 66 65 65 65 66 66
45 47 48 50 50 49 49 50 50 50 49 47 43 41 42 44 46 46 47 48 51 53 53 56 60 59 60 59 63 64 65 66
47 48 49 50 51 50 49 49 49 49 49 48 45 41 41 40 41 43 44 46 47 50 50 49 52 59 60 61 60 63 63 64
45 45 47 47 47 48 48 48 47 49 48 47 47 45 42 40 40 40 42 42 43 46 47 47 49 52 60 60 60 60 59 61
45 45 45 46 47 46 47 47 46 47 47 47 47 46 45 41 40 41 41 41 41 44 45 47 49 51 54 61 60 60 61 61
45 46 46 47 46 45 45 45 45 46 46 46 45 46 44 41 41 41 40 41 42 42 44 46 47 49 51 59 60 59 59 60
45 46 46 46 47 46 46 45 45 45 45 45 44 44 44 41 41 40 40 40 40 40 40 44 45 46 48 52 60 61 60 60
43 45 47 46 47 46 45 44 44 43 43 44 42 44 44 41 41 41 40 40 38 39 39 40 42 42 44 45 57 60 60 60
44 46 46 46 45 45 44 43 43 43 43 43 41 44 42 41 41 41 41 39 40 38 38 39 39 40 41 42 44 60 60 60
45 46 44 44 44 44 43 43 43 43 43 42 41 41 39 40 40 41 41 40 39 38 37 36 37 38 38 39 42 45 61 61
45 45 45 44 44 43 43 43 43 43 42 41 39 38 37 40 41 40 40 40 39 38 37 36 37 38 37 37 38 44 52 60
45 45 45 43 43 43 43 43 42 42 41 40 37 37 39 40 40 40 40 40 39 39 37 36 35 36 36 35 35 38 42 52
45 45 44 42 42 42 41 41 41 42 40 38 37 37 39 40 40 39 40 39 38 39 37 36 34 34 35 36 34 34 38 40
44 44 43 43 42 41 40 40 42 40 39 36 37 37 38 39 40 39 38 38 38 38 38 38 36 35 34 35 34 34 33 37
44 43 43 43 43 42 41 41 40 39 38 35 37 37 38 39 39 38 38 38 37 36 37 38 37 37 34 36 34 34 34 34
MSLP
1029.64 1028.98 1028.51 1028.15 1027.70 1027.14 1026.29 1025.69 1025.01 1024.05 1023.00 1021.91 1021.04 1020.16 1019.37 1018.51 1017.60 1017.31 1016.57 1015.64 1014.39 1012.45 1011.82 1012.17 1012.73 1013.61 1014.67 1015.85 1016.82 1017.19 1017.24 1017.52
1029.83 1029.41 1028.90 1028.41 1027.95 1027.46 1026.60 1025.78 1025.27 1024.31 1023.26 1022.09 1020.93 1020.25 1019.48 1018.91 1018.22 1017.54 1017.09 1016.30 1015.20 1014.47 1011.43 1011.21 1011.38 1012.54 1013.58 1014.92 1015.99 1016.89 1016.93 1017.35
1029.70 1029.34 1029.04 1028.70 1028.31 1027.73 1027.06 1026.31 1025.36 1024.60 1024.01 1023.11 1022.35 1021.00 1020.05 1019.00 1018.13 1017.53 1016.74 1015.96 1015.03 1013.54 1012.63 1010.76 1010.10 1010.68 1012.35 1013.61 1014.73 1015.87 1016.47 1016.63
1030.06 1029.48 1029.24 1028.92 1028.51 1028.07 1027.39 1026.59 1025.70 1024.86 1024.21 1023.48 1022.70 1021.66 1020.17 1018.93 1018.34 1017.46 1016.63 1015.81 1014.76 1013.96 1012.33 1012.15 1010.75 1009.69 1010.79 1012.19 1013.33 1014.10 1015.10 1015.81
1030.37 1029.79 1029.35 1028.98 1028.64 1028.23 1027.59 1026.78 1025.85 1024.98 1024.20 1023.58 1022.90 1022.10 1020.99 1019.82 1018.74 1017.83 1016.70 1015.91 1015.09 1014.06 1013.05 1011.65 1010.27 1011.17 1010.14 1011.52 1012.41 1012.90 1013.91 1014.63
1030.52 1029.99 1029.55 1028.96 1028.46 1028.01 1027.53 1026.75 1025.80 1025.08 1024.42 1023.76 1023.14 1022.34 1021.61 1020.57 1019.37 1018.02 1017.00 1015.97 1015.06 1014.04 1013.24 1012.35 1011.66 1009.89 1010.49 1011.91 1011.46 1012.07 1012.54 1013.04
1030.53 1030.08 1029.60 1028.89 1028.34 1027.94 1027.33 1026.53 1025.64 1025.05 1024.49 1023.89 1023.18 1022.50 1021.52 1020.54 1019.72 1018.48 1017.16 1016.14 1015.21 1014.32 1013.50 1012.82 1012.04 1011.11 1010.53 1009.97 1011.64 1011.88 1011.48 1011.97
1030.58 1029.98 1029.46 1028.98 1028.48 1027.92 1027.35 1026.53 1025.46 1024.87 1024.36 1023.97 1023.27 1022.51 1021.79 1020.81 1020.07 1019.06 1017.75 1016.43 1015.49 1014.73 1013.90 1013.07 1012.31 1011.67 1010.58 1010.14 1010.02 1011.19 1011.91 1011.56
1030.34 1029.90 1029.45 1029.00 1028.51 1028.11 1027.42 1026.57 1025.68 1025.01 1024.40 1023.86 1023.23 1022.60 1021.82 1021.15 1020.26 1019.48 1018.38 1017.23 1016.06 1015.24 1014.31 1013.18 1012.15 1011.25 1010.32 1009.40 1009.88 1010.16 1011.14 1011.13
1030.19 1029.70 1029.25 1028.93 1028.56 1028.13 1027.65 1026.90 1026.00 1025.21 1024.49 1023.89 1023.32 1022.67 1021.89 1021.21 1020.46 1019.74 1018.73 1017.64 1016.43 1015.26 1014.50 1013.49 1012.62 1011.72 1010.77 1009.24 1009.02 1009.54 1009.29 1009.84
1030.07 1029.57 1029.12 1028.90 1028.59 1028.15 1027.62 1026.95 1026.12 1025.39 1024.72 1024.14 1023.42 1022.78 1022.20 1021.56 1020.64 1019.80 1018.84 1017.80 1016.67 1015.48 1014.46 1013.46 1012.53 1011.78 1011.18 1010.12 1008.60 1008.85 1009.00 1008.29
1029.98 1029.36 1028.99 1028.76 1028.48 1028.03 1027.55 1026.87 1026.13 1025.44 1024.86 1024.21 1023.53 1022.80 1022.23 1021.59 1020.75 1019.84 1019.04 1017.95 1016.66 1015.51 1014.47 1013.70 1012.59 1011.69 1010.84 1009.59 1007.67 1007.39 1007.19 1007.69
1029.71 1029.12 1028.82 1028.51 1028.27 1027.96 1027.53 1026.94 1026.33 1025.69 1025.09 1024.33 1023.58 1022.83 1022.32 1021.59 1020.53 1019.70 1018.88 1018.05 1016.85 1015.85 1014.96 1013.92 1013.02 1011.99 1010.98 1009.50 1007.96 1005.55 1006.00 1006.52
1029.33 1028.82 1028.56 1028.33 1028.15 1027.88 1027.51 1026.98 1026.33 1025.69 1025.03 1024.36 1023.62 1023.05 1022.58 1021.68 1020.83 1020.01 1019.12 1018.19 1016.97 1016.00 1015.20 1014.44 1013.59 1012.46 1010.95 1009.83 1008.67 1007.16 1005.33 1005.07
1028.93 1028.55 1028.34 1028.24 1028.11 1027.78 1027.34 1026.82 1026.31 1025.74 1025.06 1024.59 1023.94 1023.45 1022.90 1021.83 1020.96 1020.15 1019.36 1018.54 1017.42 1016.46 1015.44 1014.77 1014.03 1013.23 1011.74 1010.60 1009.38 1007.02 1005.37 1004.23
1028.52 1028.27 1028.17 1028.14 1027.94 1027.69 1027.39 1026.94 1026.41 1025.95 1025.31 1024.77 1024.46 1023.95 1023.09 1021.99 1021.08 1020.27 1019.37 1018.58 1017.75 1016.75 1015.63 1015.17 1014.09 1013.48 1012.87 1011.18 1009.51 1008.49 1007.24 1004.26
1028.33 1028.20 1028.22 1028.21 1028.01 1027.75 1027.48 1027.10 1026.58 1026.10 1025.52 1025.15 1024.83 1024.14 1023.08 1022.06 1021.21 1020.47 1019.64 1018.78 1018.02 1017.29 1016.28 1015.06 1014.96 1014.35 1013.50 1011.83 1010.30 1010.13 1009.29 1006.00
1028.38 1028.41 1028.49 1028.42 1028.21 1028.02 1027.62 1027.26 1026.86 1026.35 1025.82 1025.68 1025.04 1024.15 1023.28 1022.30 1021.40 1020.62 1019.77 1018.96 1018.29 1017.76 1017.11 1016.39 1015.88 1014.59 1013.83 1011.81 1011.78 1011.21 1010.73 1008.97
1028.61 1028.72 1028.73 1028.72 1028.51 1028.20 1027.90 1027.50 1027.10 1026.58 1026.17 1025.86 1025.20 1024.46 1023.34 1022.52 1021.65 1020.84 1020.06 1019.35 1018.60 1017.92 1017.45 1016.69 1016.02 1015.08 1014.30 1013.43 1012.63 1012.65 1011.55 1009.95
Wind_Speed
18 19 19 19 18 18 19 16 20 19 14 14 13 12 13 13 12 10 13 13 17 15 13 14 13 11 10 10 12 13 13 13
17 17 17 19 19 19 20 20 16 13 13 15 13 13 14 12 12 17 17 13 16 16 13 16 16 15 15 14 12 15 13 13
19 19 18 19 18 18 18 18 19 13 11 11 13 13 13 12 11 15 16 16 15 15 15 12 18 16 16 16 16 12 12 13
17 19 18 17 18 18 17 17 17 15 15 11 10 13 12 9 13 13 14 18 16 14 17 12 12 14 14 16 18 21 14 13
14 16 17 16 16 15 16 17 17 16 17 12 17 11 14 13 13 13 14 16 17 17 16 15 13 10 13 15 16 18 16 14
12 14 15 15 15 15 14 16 16 17 17 16 12 14 11 11 13 18 17 13 17 18 15 18 10 7 10 7 7 17 15 15
12 11 12 14 15 15 15 17 17 17 17 18 17 16 17 14 14 14 12 10 11 16 15 14 15 10 10 10 13 12 16 16
11 11 12 14 15 16 15 17 19 19 18 18 18 18 16 16 14 13 17 11 10 13 16 13 12 13 11 12 14 12 6 11
11 11 10 12 14 14 16 18 18 19 18 18 17 19 12 11 13 12 11 10 11 15 14 14 14 14 15 12 12 14 15 10
12 12 10 11 13 15 15 17 18 18 19 16 16 16 18 16 15 15 11 12 12 14 16 13 12 12 13 15 12 15 15 16
12 10 10 9 11 12 15 16 17 18 18 16 12 16 17 14 14 15 17 14 14 14 17 15 14 13 13 14 15 17 18 15
11 11 10 9 11 13 15 16 18 18 17 16 14 16 17 15 14 14 15 16 15 14 15 18 17 16 15 13 15 17 19 19
11 11 10 10 11 13 14 15 16 17 16 16 13 16 16 15 16 18 16 16 16 15 15 15 18 17 16 15 15 15 20 23
12 12 10 9 11 12 13 14 15 16 16 17 16 17 15 15 16 17 16 16 17 15 14 14 16 19 19 19 16 15 19 19
11 11 10 9 10 12 13 15 15 16 17 17 16 18 15 15 16 16 16 15 16 16 14 14 16 16 20 20 19 18 18 18
12 11 10 9 12 13 14 14 16 16 16 17 14 14 16 15 16 17 16 15 16 16 15 13 15 16 16 22 22 19 21 7
12 11 11 10 13 14 14 13 15 15 15 16 14 15 16 17 17 16 17 17 14 16 15 16 13 10 26 32 27 17 17 11
11 10 8 10 13 13 14 14 14 15 15 14 15 16 16 17 17 17 15 16 16 16 14 16 14 13 25 30 30 13 14 13
9 8 8 11 12 13 13 12 13 14 14 13 13 15 17 17 17 17 17 14 15 14 15 15 13 13 25 26 25 13 12 13
Wind_Direction
7 7 4 2 358 354 356 357 349 349 344 343 342 336 335 333 331 319 316 319 317 316 207 200 194 187 184 187 198 211 209 199
11 10 8 4 3 358 354 357 350 349 345 345 344 340 334 332 328 331 326 310 314 322 275 196 185 192 189 185 188 208 207 196
8 7 7 7 2 0 356 352 358 353 346 337 339 333 332 324 330 326 327 325 315 312 304 284 189 186 188 183 187 195 206 192
3 3 4 3 4 357 355 354 353 358 347 338 331 332 334 334 335 332 335 326 319 305 298 289 284 188 189 190 189 189 197 198
0 1 -0 0 357 356 354 354 356 356 356 344 343 337 339 334 332 330 329 335 326 316 314 285 293 302 192 197 193 194 189 200
350 355 355 355 356 354 350 352 354 356 356 354 345 336 331 329 336 334 335 333 328 320 315 320 238 294 260 221 245 194 196 192
348 348 350 354 356 353 348 348 349 355 356 353 349 346 332 336 339 338 335 333 331 327 328 327 326 250 253 231 210 249 197 204
339 345 344 346 348 348 348 348 347 348 350 349 350 349 342 333 335 336 338 335 336 332 327 324 316 303 261 220 225 215 273 235
339 339 331 340 343 343 344 344 343 344 344 344 348 348 346 339 337 333 328 332 334 329 324 319 312 298 304 223 214 214 206 219
326 329 329 334 342 343 341 338 337 341 343 341 348 346 348 344 340 333 330 329 336 343 330 328 325 307 286 264 215 213 204 210
321 323 327 325 335 340 341 345 345 340 343 346 336 346 352 340 340 341 337 332 335 349 347 342 341 331 308 299 221 221 213 210
321 318 330 330 338 345 344 348 348 347 347 347 336 354 354 349 345 345 341 337 339 352 355 348 348 343 332 315 251 211 216 213
317 324 334 337 341 347 350 351 351 350 347 347 341 356 354 343 348 350 345 343 344 345 358 357 350 347 341 338 322 247 210 213
320 327 331 333 341 347 351 352 351 349 349 351 347 355 355 347 348 351 349 341 348 348 355 1 355 351 349 346 329 315 220 205
319 322 325 333 341 346 348 350 349 346 347 351 351 356 343 342 349 351 350 348 350 348 352 355 4 355 357 351 343 336 288 200
318 320 329 336 343 347 349 346 347 346 348 352 356 352 345 347 350 348 351 353 353 354 351 354 359 6 358 358 356 346 323 141
315 323 338 340 341 346 346 345 346 347 351 357 353 353 342 353 351 350 354 356 352 0 351 359 358 358 353 5 5 351 335 10
320 333 340 340 341 343 346 346 346 350 356 358 353 350 348 350 352 351 350 353 354 355 356 360 351 5 1 10 1 348 340 356
337 342 343 346 339 343 342 350 352 353 357 355 352 350 347 352 353 354 351 349 352 344 354 357 4 6 1 10 2 346 340 356